Date String (YYYY-MM-DD hh:mm:ss) UTC,Instrument flags,Ambient pressure (hPa),Sample flow (lpm),Bypass flow (lpm),Sample temperature (°C),Ambient temperature (°C),ASC tube jacket temperature (°C),LED temperature (°C),Box temperature (°C),Sample RH (%),Span deviation,Mass concentration (μg/m³),Mass concentration (μg/m³),Mass concentration (μg/m³)
DateTimeUTC,F1_M11,P_M11,Q1_M11,Q2_M11,T1_M11,T2_M11,T3_M11,T4_M11,T5_M11,U1_M11,ZSPAN_M11,X0_M11,X2_M11,X1_M11
2023-03-09 17:00:00,,0825.5,5.00,0.00,22.1,20.4,00.0,30.9,23.7,07.4,0000.0,0002.44,0001.14,0000.72
2023-03-09 17:01:00,,0825.5,5.01,0.00,22.1,20.4,00.0,30.9,23.7,07.3,0000.0,0002.44,0001.13,0000.72
2023-03-09 17:02:00,,0825.4,4.99,0.00,22.1,20.4,00.0,30.9,23.7,07.5,0000.0,0002.40,0001.12,0000.71
2023-03-09 17:03:00,,0825.5,4.99,0.00,22.0,20.3,00.0,30.8,23.6,07.4,0000.0,0002.53,0001.15,0000.71
2023-03-09 17:04:00,,0825.5,4.99,0.00,22.0,20.3,00.0,30.8,23.6,07.5,0000.0,0002.95,0001.16,0000.70
2023-03-09 17:05:00,,0825.4,5.00,0.00,22.0,20.2,00.0,30.8,23.6,07.4,0000.0,0003.22,0001.13,0000.70
2023-03-09 17:06:00,,0825.4,5.02,0.00,21.9,20.1,00.0,30.8,23.5,07.6,0000.0,0003.02,0001.14,0000.71
2023-03-09 17:07:00,,0825.4,5.00,0.00,21.9,20.1,00.0,30.8,23.5,07.6,0000.0,0003.04,0001.15,0000.72
2023-03-09 17:08:00,,0825.5,5.00,0.00,21.9,21.1,00.0,30.7,23.7,07.6,0000.0,0002.94,0001.10,0000.72
2023-03-09 17:09:00,,0825.5,4.98,0.00,22.1,22.7,00.0,30.7,24.1,07.3,0000.0,0002.87,0001.11,0000.72
2023-03-09 17:10:00,,0825.5,5.02,0.00,22.2,22.9,00.0,30.8,24.3,07.3,0000.0,0002.84,0001.10,0000.73
2023-03-09 17:11:00,,0825.3,5.00,0.00,22.2,22.3,00.0,30.8,24.1,07.5,0000.0,0002.86,0001.11,0000.73
2023-03-09 17:12:00,,0825.2,5.00,0.00,22.2,21.8,00.0,30.9,24.0,07.5,0000.0,0002.89,0001.13,0000.73
2023-03-09 17:13:00,,0825.1,4.99,0.00,22.2,21.5,00.0,30.9,23.9,07.3,0000.0,0002.82,0001.09,0000.72
2023-03-09 17:14:00,,0825.4,5.00,0.00,22.2,21.2,00.0,30.9,23.9,07.3,0000.0,0003.30,0001.10,0000.72
2023-03-09 17:15:00,,0825.5,5.01,0.00,22.2,20.9,00.0,30.9,23.8,07.2,0000.0,0003.26,0001.09,0000.72
2023-03-09 17:16:00,,0825.5,5.01,0.00,22.1,20.8,00.0,30.9,23.8,07.0,0000.0,0002.62,0001.10,0000.72
2023-03-09 17:17:00,,0825.4,4.99,0.00,22.1,20.6,00.0,30.9,23.8,07.3,0000.0,0002.61,0001.08,0000.70
2023-03-09 17:18:00,,0825.3,5.00,0.00,22.1,20.5,00.0,30.9,23.7,07.3,0000.0,0002.57,0001.06,0000.70
2023-03-09 17:19:00,,0825.4,5.02,0.00,22.1,20.4,00.0,30.9,23.6,07.4,0000.0,0002.60,0001.07,0000.70
2023-03-09 17:20:00,,0825.4,5.02,0.00,22.0,20.3,00.0,30.8,23.6,07.3,0000.0,0002.72,0001.08,0000.69
2023-03-09 17:21:00,,0825.4,4.98,0.00,22.0,20.3,00.0,30.8,23.6,07.2,0000.0,0002.71,0001.09,0000.69
2023-03-09 17:22:00,,0825.3,5.00,0.00,22.0,20.3,00.0,30.8,23.7,07.4,0000.0,0002.63,0001.05,0000.68
2023-03-09 17:23:00,,0825.3,5.00,0.00,22.0,20.3,00.0,30.8,23.7,07.6,0000.0,0003.31,0001.08,0000.68
2023-03-09 17:24:00,,0825.3,4.98,0.00,22.0,20.3,00.0,30.8,23.6,07.7,0000.0,0004.44,0001.17,0000.70
2023-03-09 17:25:00,,0825.3,5.00,0.00,21.9,20.2,00.0,30.8,23.6,07.3,0000.0,0003.91,0001.16,0000.70
2023-03-09 17:26:00,,0825.3,5.02,0.00,21.9,20.2,00.0,30.7,23.5,07.2,0000.0,0003.64,0001.15,0000.70
2023-03-09 17:27:00,,0825.3,5.00,0.00,21.9,20.1,00.0,30.7,23.5,07.3,0000.0,0003.59,0001.13,0000.70
2023-03-09 17:28:00,,0825.3,5.00,0.00,21.9,20.3,00.0,30.7,23.5,07.4,0000.0,0003.65,0001.17,0000.71
2023-03-09 17:29:00,,0825.3,5.02,0.00,21.9,21.5,00.0,30.7,23.8,07.5,0000.0,0003.69,0001.20,0000.72
2023-03-09 17:30:00,,0825.1,4.99,0.00,22.1,22.7,00.0,30.7,24.1,07.4,0000.0,0003.76,0001.24,0000.72
2023-03-09 17:31:00,,0825.1,4.99,0.00,22.2,22.7,00.0,30.8,24.2,07.4,0000.0,0003.73,0001.24,0000.72
2023-03-09 17:32:00,,0825.2,5.00,0.00,22.2,22.1,00.0,30.8,24.1,07.2,0000.0,0003.88,0001.26,0000.72
2023-03-09 17:33:00,,0825.2,4.99,0.00,22.2,21.7,00.0,30.8,24.0,07.1,0000.0,0003.95,0001.31,0000.73
2023-03-09 17:34:00,,0825.1,4.99,0.00,22.2,21.4,00.0,30.8,23.9,07.0,0000.0,0003.47,0001.27,0000.74
2023-03-09 17:35:00,,0825.1,5.00,0.00,22.2,21.1,00.0,30.8,23.9,07.2,0000.0,0002.14,0001.21,0000.73
2023-03-09 17:36:00,,0825.0,5.00,0.00,22.2,21.0,00.0,30.8,23.8,07.4,0000.0,0002.15,0001.16,0000.72
2023-03-09 17:37:00,,0825.1,5.00,0.00,22.1,20.8,00.0,30.8,23.8,07.3,0000.0,0002.34,0001.15,0000.71
2023-03-09 17:38:00,,0825.1,5.02,0.00,22.1,20.7,00.0,30.8,23.8,07.2,0000.0,0002.36,0001.14,0000.71
2023-03-09 17:39:00,,0825.0,4.99,0.00,22.1,20.7,00.0,30.8,23.8,07.3,0000.0,0002.33,0001.13,0000.71
2023-03-09 17:40:00,,0825.1,5.01,0.00,22.1,20.7,00.0,30.8,23.8,07.3,0000.0,0002.27,0001.10,0000.70
2023-03-09 17:41:00,,0825.1,5.00,0.00,22.1,20.6,00.0,30.8,23.8,07.5,0000.0,0002.20,0001.06,0000.69
2023-03-09 17:42:00,,0825.2,4.99,0.00,22.1,20.6,00.0,30.8,23.7,07.4,0000.0,0002.70,0001.07,0000.70
2023-03-09 17:43:00,,0825.0,5.00,0.00,22.1,20.5,00.0,30.8,23.8,07.5,0000.0,0003.38,0001.09,0000.70
2023-03-09 17:44:00,,0825.0,5.01,0.00,22.0,20.5,00.0,30.8,23.7,07.4,0000.0,0003.41,0001.09,0000.69
2023-03-09 17:45:00,,0825.0,5.01,0.00,22.0,20.4,00.0,30.8,23.6,07.5,0000.0,0003.64,0001.11,0000.70
2023-03-09 17:46:00,,0825.0,5.00,0.00,22.0,20.4,00.0,30.8,23.6,07.6,0000.0,0003.64,0001.11,0000.70
2023-03-09 17:47:00,,0825.0,5.00,0.00,22.0,20.3,00.0,30.8,23.6,07.5,0000.0,0003.61,0001.15,0000.70
2023-03-09 17:48:00,,0824.9,4.99,0.00,21.9,20.3,00.0,30.8,23.6,07.4,0000.0,0003.38,0001.18,0000.72
2023-03-09 17:49:00,,0825.0,5.00,0.00,21.9,20.3,00.0,30.7,23.6,07.2,0000.0,0003.36,0001.18,0000.72
2023-03-09 17:50:00,,0825.0,5.00,0.00,21.9,20.2,00.0,30.7,23.5,07.3,0000.0,0003.29,0001.15,0000.72
2023-03-09 17:51:00,,0825.0,5.00,0.00,21.9,20.2,00.0,30.7,23.5,07.2,0000.0,0003.27,0001.14,0000.73
2023-03-09 17:52:00,,0825.0,5.00,0.00,21.8,20.2,00.0,30.7,23.5,07.6,0000.0,0003.28,0001.15,0000.73
2023-03-09 17:53:00,,0825.0,5.00,0.00,21.8,20.2,00.0,30.7,23.5,07.6,0000.0,0002.98,0001.13,0000.71
2023-03-09 17:54:00,,0825.0,4.99,0.00,21.9,21.3,00.0,30.6,23.7,07.2,0000.0,0001.91,0001.07,0000.71
2023-03-09 17:55:00,,0824.6,5.01,0.00,22.0,22.7,00.0,30.7,24.1,07.4,0000.0,0002.02,0001.10,0000.72
2023-03-09 17:56:00,,0825.2,5.04,0.00,22.2,22.7,00.0,30.7,24.2,07.3,0000.0,0002.84,0001.32,0000.73
2023-03-09 17:57:00,,0825.2,4.98,0.00,22.2,22.2,00.0,30.8,24.1,07.2,0000.0,0003.35,0001.38,0000.73
2023-03-09 17:58:00,,0825.0,5.00,0.00,22.2,21.8,00.0,30.8,24.1,07.3,0000.0,0003.32,0001.35,0000.72
2023-03-09 17:59:00,,0824.9,4.99,0.00,22.2,21.5,00.0,30.8,24.0,07.2,0000.0,0003.32,0001.32,0000.71
